Weather History for KCDR - September, 2013

Change the Weather History Date:

Monday, September 2, 2013

  Actual Average Record
Temperature  
Mean Temperature 76 °F 67 °F  
Max Temperature 96 °F 85 °F 101 °F (1960)
Min Temperature 56 °F 50 °F 34 °F (1952)
Degree Days  
Heating Degree Days 0 2  
Month to date heating degree days 0 4  
Since 1 July heating degree days 0 34  
Cooling Degree Days 11 4  
Month to date cooling degree days 13 9  
Year to date cooling degree days 781 656  
Growing Degree Days 26 (Base 50)    
Moisture  
Dew Point 52 °F    
Average Humidity 48    
Maximum Humidity 72    
Minimum Humidity 24    
Precipitation  
Precipitation 0.00 in 0.05 in 1.25 in (1999)
Month to date precipitation 0.00 0.10  
Year to date precipitation 12.34 13.97  
Sea Level Pressure  
Sea Level Pressure 29.94 in    
Wind  
Wind Speed 9 mph (SSE)    
Max Wind Speed 23 mph    
Max Gust Speed 28 mph    
Visibility 10 miles    
Events      
T = Trace of Precipitation, MM = Missing Value Source: NWS Daily Summary

Daily Weather History Graph

Daily Weather History Graph

Search for Another Location

Airport or City:

Trip Planner

Search our weather history database for the weather conditions in past years. The results will help you decide how hot, cold, wet, or windy it might be!

Date:

Astronomy

Sep. 02, 2013 Rise Set
Actual Time 6:18 AM MDT 7:24 PM MDT
Civil Twilight 5:49 AM MDT 7:53 PM MDT
Nautical Twilight 5:14 AM MDT 8:28 PM MDT
Astronomical Twilight 4:38 AM MDT 9:04 PM MDT
Moon 3:35 AM MDT (9/2) 5:41 PM MDT (9/2)
Length of Visible Light 14h 04m
Length of Day
13h 06m
Waning Crescent, 7% of the Moon is Illuminated
Sep 2
Waning Crescent
Sep 5
New
Sep 12
First Quarter
Sep 19
Full
Sep 26
Last Quarter

Hourly Weather History & Observations

Time (MDT) Temp. Heat Index Dew Point Humidity Pressure Visibility Wind Dir Wind Speed Gust Speed Precip Events Conditions
12:53 AM 59.0 °F - 46.9 °F 64% 30.04 in 10.0 mi NE 3.5 mph - N/A   Clear
1:53 AM 57.9 °F - 48.0 °F 70% 30.03 in 10.0 mi Calm Calm - N/A   Clear
2:53 AM 66.0 °F - 46.9 °F 50% 30.01 in 10.0 mi South 8.1 mph - N/A   Clear
3:53 AM 66.0 °F - 46.9 °F 50% 30.00 in 10.0 mi SSW 10.4 mph - N/A   Clear
4:53 AM 61.0 °F - 46.9 °F 60% 30.01 in 10.0 mi NNW 4.6 mph - N/A   Clear
5:53 AM 59.0 °F - 46.0 °F 62% 30.01 in 10.0 mi Calm Calm - N/A   Clear
6:53 AM 61.0 °F - 48.0 °F 62% 30.01 in 10.0 mi Calm Calm - N/A   Clear
7:53 AM 70.0 °F - 48.9 °F 47% 30.02 in 10.0 mi Calm Calm - N/A   Clear
8:53 AM 78.1 °F - 51.1 °F 39% 30.01 in 10.0 mi South 12.7 mph - N/A   Clear
9:53 AM 82.0 °F 81.2 °F 53.1 °F 37% 30.00 in 10.0 mi SSW 11.5 mph - N/A   Clear
10:53 AM 86.0 °F 84.5 °F 55.0 °F 35% 29.99 in 10.0 mi South 9.2 mph 17.3 mph N/A   Clear
11:53 AM 88.0 °F 86.1 °F 55.0 °F 32% 29.96 in 10.0 mi South 12.7 mph - N/A   Clear
12:53 PM 91.9 °F 90.3 °F 55.9 °F 30% 29.94 in 10.0 mi South 15.0 mph 24.2 mph N/A   Clear
1:53 PM 91.9 °F 89.5 °F 54.0 °F 27% 29.93 in 10.0 mi SSE 4.6 mph 18.4 mph N/A   Clear
2:53 PM 93.9 °F 91.7 °F 54.0 °F 26% 29.89 in 10.0 mi SSE 9.2 mph 18.4 mph N/A   Clear
3:53 PM 93.9 °F 91.4 °F 53.1 °F 25% 29.86 in 10.0 mi SE 10.4 mph - N/A   Clear
4:53 PM 95.0 °F 92.5 °F 53.1 °F 24% 29.85 in 10.0 mi ESE 11.5 mph 17.3 mph N/A   Clear
5:53 PM 93.9 °F 91.4 °F 53.1 °F 25% 29.85 in 10.0 mi SSE 12.7 mph - N/A   Clear
6:53 PM 89.1 °F 87.1 °F 55.0 °F 31% 29.85 in 10.0 mi SE 10.4 mph - N/A   Clear
7:53 PM 84.0 °F 83.0 °F 55.9 °F 38% 29.86 in 10.0 mi SE 11.5 mph - N/A   Clear
8:53 PM 82.9 °F 82.1 °F 55.9 °F 39% 29.85 in 10.0 mi SSE 13.8 mph - N/A   Clear
9:53 PM 82.9 °F 82.0 °F 55.0 °F 38% 29.86 in 10.0 mi SSE 20.7 mph 27.6 mph N/A   Clear
10:53 PM 81.0 °F 80.8 °F 55.9 °F 42% 29.87 in 10.0 mi South 11.5 mph 21.9 mph N/A   Clear
11:53 PM 81.0 °F 81.0 °F 57.0 °F 44% 29.87 in 10.0 mi SSW 11.5 mph - N/A   Clear